Regional Weather Roundup
Issued by NWS Midland/Odessa, TX

Skip options and go directly to product.
Home | Oldest Version | Previous Version | Current Version | All | Graphics & Text | Save Text | Print | Product List | Glossary On

Skip product version selection by date and time.   
257
ASUS44 KMAF 292010
RWRMAF
MIDLAND AREA WEATHER ROUNDUP
NATIONAL WEATHER SERVICE MIDLAND TX
200 PM CST THU JAN 29 2015

...IN SOUTHWEST TEXAS AND SOUTHEAST NEW MEXICO...

CITY           SKY/WX    TMP DP  RH WIND       PRES   REMARKS
ALPINE         MOSUNNY   64  38  39 E15G21    30.38F
ANDREWS        FAIR      58  31  36 NE18      30.37S
ARTESIA        CLOUDY    54  34  47 N13       30.44F
BIG SPRING     PTSUNNY   61  32  32 N18G26    30.37S
CARLSBAD       PTSUNNY   58  33  39 N13       30.40F
DRYDEN           N/A     75  42  30 NE15      30.21F
FORT STOCKTON  MOSUNNY   64  39  39 N12       30.31F
GUAD PASS      CLOUDY    50  31  48 NE38G48   30.34F
HOBBS          SUNNY     54  32  43 NE21      30.41F
MARFA          CLOUDY    63  37  39 NE18G25   30.31F
MIDLAND AIRPK  PTSUNNY   61  33  34 NE18G25   30.35S
MIDLAND INTL   PTSUNNY   61  33  35 NE24      30.33F
ODESSA         PTSUNNY   62  33  33 NE24G31   30.35S
PECOS          MOSUNNY   65  36  33 N12       30.34F
PRESIDIO       FAIR      75  48  37 SE3       30.17F
SEMINOLE       CLOUDY    56  32  39 NE21G28   30.39F
SNYDER         PTSUNNY  N/A N/A N/A NE20G26   30.37S
WINK           PTSUNNY   65  32  29 NE15G25   30.34F
$$
...OTHER STATIONS IN TEXAS...

CITY           SKY/WX    TMP DP  RH WIND       PRES   REMARKS
ABILENE        MOSUNNY   63  36  36 N17G25    30.34F
AMARILLO       CLOUDY    49  25  39 N17       30.47F
AUSTIN         PTSUNNY   74  53  48 CALM      30.20F
BROWNSVILLE    MOSUNNY   77  61  57 S13       30.15F
CORPUS CHRISTI PTSUNNY   76  57  51 SE16      30.17F
DALLAS FTW     PTSUNNY   66  36  32 N21       30.27F
DEL RIO        SUNNY     76  50  40 NE8       30.17F
EL PASO        CLOUDY    60  32  34 NE17      30.28F
HOUSTON INT    PTSUNNY   73  57  57 W10       30.21F
LUBBOCK        CLOUDY    56  24  29 NE20G29   30.40F
SAN ANGELO     PTSUNNY   66  35  31 NE20      30.28F
SAN ANTONIO    FAIR      73  55  53 VRB5      30.21F
WACO           PTSUNNY   69  40  34 NE15      30.23F
WICHITA FALLS  NOT AVBL
$$
...OTHER LOCATIONS IN NEW MEXICO...

CITY           SKY/WX    TMP DP  RH WIND       PRES   REMARKS
ALAMAGORDO     CLOUDY    57  37  47 S8        30.30F
ALBUQUERQUE    CLOUDY    51  27  39 E22G31    30.39F
CANNON AFB     CLOUDY    49  22  34 NE21      30.45F
CLOVIS         CLOUDY    50  23  34 NE20      30.45F
HOLLOMAN AFB   PTSUNNY   58  37  45 S6        30.27F
ROSWELL        CLOUDY    56  30  37 NE10      30.43F
RUIDOSO        CLOUDY    41  27  56 SE15      30.47F WCI  33
SANTA FE       CLOUDY    48  24  39 SE18G25   30.41F
TRUTH OR CONSE PTSUNNY   58  31  35 N18G25    30.31F
TUCUMCARI      CLOUDY    48  20  32 NE14      30.48F
$$

USA.gov is the U.S. government's official web portal to all federal, state and local government web resources and services.